Date String (YYYY-MM-DD hh:mm:ss) UTC,Instrument flags,Ambient pressure (hPa),Sample flow (lpm),Bypass flow (lpm),Sample temperature (°C),Ambient temperature (°C),ASC tube jacket temperature (°C),LED temperature (°C),Box temperature (°C),Sample RH (%),Span deviation,Mass concentration (μg/m³),Mass concentration (μg/m³),Mass concentration (μg/m³)
DateTimeUTC,F1_M11,P_M11,Q1_M11,Q2_M11,T1_M11,T2_M11,T3_M11,T4_M11,T5_M11,U1_M11,ZSPAN_M11,X0_M11,X2_M11,X1_M11
2021-11-01 03:00:00,,0829.6,4.99,0.00,25.7,24.8,00.0,34.8,27.6,18.0,0000.0,0009.55,0005.83,0005.34
2021-11-01 03:01:00,,0829.6,5.01,0.00,25.7,24.8,00.0,34.8,27.6,18.0,0000.0,0009.59,0005.82,0005.35
2021-11-01 03:02:00,,0829.6,4.99,0.00,25.7,24.8,00.0,34.8,27.6,18.0,0000.0,0009.54,0005.85,0005.35
2021-11-01 03:03:00,,0829.5,5.00,0.00,25.7,24.8,00.0,34.8,27.6,18.0,0000.0,0009.44,0005.87,0005.36
2021-11-01 03:04:00,,0829.7,5.01,0.00,25.7,24.8,00.0,34.8,27.6,18.0,0000.0,0009.76,0005.88,0005.38
2021-11-01 03:05:00,,0829.7,4.99,0.00,25.7,24.8,00.0,34.8,27.6,18.0,0000.0,0009.66,0005.88,0005.40
2021-11-01 03:06:00,,0829.7,5.00,0.00,25.7,24.8,00.0,34.8,27.6,18.0,0000.0,0009.50,0005.88,0005.40
2021-11-01 03:07:00,,0829.7,5.00,0.00,25.7,24.8,00.0,34.8,27.6,18.0,0000.0,0009.52,0005.86,0005.40
2021-11-01 03:08:00,,0829.7,5.01,0.00,25.7,24.8,00.0,34.7,27.6,18.0,0000.0,0010.13,0005.84,0005.41
2021-11-01 03:09:00,,0829.8,5.01,0.00,25.7,24.8,00.0,34.7,27.6,18.0,0000.0,0010.29,0005.86,0005.42
2021-11-01 03:10:00,,0829.8,4.99,0.00,25.7,24.8,00.0,34.7,27.6,18.0,0000.0,0010.16,0005.85,0005.42
2021-11-01 03:11:00,,0829.8,5.00,0.00,25.7,24.8,00.0,34.7,27.5,18.0,0000.0,0010.14,0005.84,0005.41
2021-11-01 03:12:00,,0829.8,5.01,0.00,25.7,24.8,00.0,34.7,27.5,18.0,0000.0,0010.57,0005.84,0005.41
2021-11-01 03:13:00,,0829.8,4.99,0.00,25.7,24.8,00.0,34.7,27.5,18.0,0000.0,0010.83,0005.81,0005.40
2021-11-01 03:14:00,,0829.7,5.01,0.00,25.7,24.8,00.0,34.7,27.5,18.0,0000.0,0010.76,0005.83,0005.39
2021-11-01 03:15:00,,0829.7,4.98,0.00,25.7,24.8,00.0,34.7,27.5,18.0,0000.0,0010.31,0005.82,0005.38
2021-11-01 03:16:00,,0829.6,5.00,0.00,25.7,24.8,00.0,34.7,27.5,18.0,0000.0,0010.30,0005.80,0005.37
2021-11-01 03:17:00,,0829.6,5.01,0.00,25.7,24.8,00.0,34.7,27.5,18.0,0000.0,0011.06,0005.77,0005.36
2021-11-01 03:18:00,,0829.7,4.99,0.00,25.7,24.8,00.0,34.7,27.5,18.0,0000.0,0011.51,0005.75,0005.36
2021-11-01 03:19:00,,0829.8,5.00,0.00,25.7,24.8,00.0,34.7,27.5,18.0,0000.0,0011.27,0005.76,0005.36
2021-11-01 03:20:00,,0829.6,5.02,0.00,25.7,24.8,00.0,34.7,27.5,18.0,0000.0,0010.93,0005.75,0005.35
2021-11-01 03:21:00,,0829.6,4.99,0.00,25.7,24.8,00.0,34.7,27.5,18.0,0000.0,0010.96,0005.74,0005.35
2021-11-01 03:22:00,,0829.5,5.00,0.00,25.7,24.8,00.0,34.7,27.5,18.0,0000.0,0010.92,0005.74,0005.35
2021-11-01 03:23:00,,0829.8,5.00,0.00,25.7,24.8,00.0,34.7,27.5,18.0,0000.0,0010.47,0005.74,0005.36
2021-11-01 03:24:00,,0829.7,5.01,0.00,25.7,24.8,00.0,34.7,27.5,18.0,0000.0,0010.19,0005.75,0005.36
2021-11-01 03:25:00,,0829.9,4.99,0.00,25.6,24.8,00.0,34.7,27.5,18.0,0000.0,0010.47,0005.71,0005.37
2021-11-01 03:26:00,,0829.8,5.00,0.00,25.7,24.8,00.0,34.7,27.5,18.1,0000.0,0010.69,0005.72,0005.38
2021-11-01 03:27:00,,0829.6,5.01,0.00,25.7,24.8,00.0,34.7,27.5,18.1,0000.0,0010.63,0005.75,0005.38
2021-11-01 03:28:00,,0829.6,4.99,0.00,25.7,24.8,00.0,34.7,27.5,18.1,0000.0,0009.87,0005.79,0005.39
2021-11-01 03:29:00,,0829.6,5.01,0.00,25.7,24.8,00.0,34.7,27.5,18.1,0000.0,0009.68,0005.78,0005.40
2021-11-01 03:30:00,,0829.5,4.98,0.00,25.7,24.8,00.0,34.7,27.5,18.1,0000.0,0009.61,0005.77,0005.40
2021-11-01 03:31:00,,0829.6,5.00,0.00,25.7,24.8,00.0,34.7,27.5,18.1,0000.0,0009.59,0005.78,0005.42
2021-11-01 03:32:00,,0829.7,5.00,0.00,25.6,24.8,00.0,34.7,27.5,18.1,0000.0,0009.76,0005.82,0005.43
2021-11-01 03:33:00,,0829.8,4.99,0.00,25.6,24.8,00.0,34.7,27.5,18.1,0000.0,0009.76,0005.84,0005.43
2021-11-01 03:34:00,,0829.6,5.00,0.00,25.6,24.8,00.0,34.7,27.5,18.1,0000.0,0009.79,0005.84,0005.43
2021-11-01 03:35:00,,0829.5,4.99,0.00,25.6,24.8,00.0,34.7,27.5,18.2,0000.0,0009.60,0005.84,0005.43
2021-11-01 03:36:00,,0829.6,5.00,0.00,25.6,24.8,00.0,34.7,27.5,18.2,0000.0,0009.61,0005.85,0005.44
2021-11-01 03:37:00,,0829.6,5.00,0.00,25.6,24.8,00.0,34.7,27.5,18.2,0000.0,0009.86,0005.85,0005.44
2021-11-01 03:38:00,,0829.6,4.99,0.00,25.6,24.8,00.0,34.7,27.5,18.2,0000.0,0009.83,0005.83,0005.44
2021-11-01 03:39:00,,0829.6,5.00,0.00,25.6,24.8,00.0,34.7,27.5,18.2,0000.0,0009.74,0005.79,0005.43
2021-11-01 03:40:00,,0829.6,4.99,0.00,25.6,24.8,00.0,34.7,27.5,18.2,0000.0,0009.64,0005.80,0005.43
2021-11-01 03:41:00,,0829.6,5.01,0.00,25.6,24.7,00.0,34.7,27.5,18.3,0000.0,0009.23,0005.82,0005.43
2021-11-01 03:42:00,,0829.6,5.00,0.00,25.6,24.7,00.0,34.7,27.5,18.3,0000.0,0009.28,0005.83,0005.43
2021-11-01 03:43:00,,0829.5,4.99,0.00,25.6,24.7,00.0,34.7,27.5,18.3,0000.0,0009.20,0005.84,0005.43
2021-11-01 03:44:00,,0829.6,5.01,0.00,25.6,24.7,00.0,34.6,27.4,18.3,0000.0,0009.12,0005.82,0005.43
2021-11-01 03:45:00,,0829.6,5.00,0.00,25.6,24.7,00.0,34.6,27.4,18.3,0000.0,0009.10,0005.81,0005.42
2021-11-01 03:46:00,,0829.6,5.01,0.00,25.6,24.7,00.0,34.6,27.5,18.3,0000.0,0009.24,0005.80,0005.42
2021-11-01 03:47:00,,0829.5,5.01,0.00,25.6,24.7,00.0,34.6,27.4,18.3,0000.0,0009.19,0005.80,0005.42
2021-11-01 03:48:00,,0829.6,4.99,0.00,25.6,24.7,00.0,34.6,27.5,18.3,0000.0,0008.82,0005.85,0005.45
2021-11-01 03:49:00,,0829.6,5.00,0.00,25.6,24.7,00.0,34.6,27.4,18.3,0000.0,0009.02,0005.89,0005.50
2021-11-01 03:50:00,,0829.5,5.00,0.00,25.6,24.7,00.0,34.6,27.4,18.3,0000.0,0009.61,0005.96,0005.54
2021-11-01 03:51:00,,0829.5,4.99,0.00,25.6,24.7,00.0,34.6,27.4,18.3,0000.0,0010.30,0006.03,0005.59
2021-11-01 03:52:00,,0829.5,5.01,0.00,25.6,24.7,00.0,34.6,27.4,18.3,0000.0,0010.27,0006.05,0005.62
2021-11-01 03:53:00,,0829.6,5.00,0.00,25.6,24.7,00.0,34.6,27.4,18.3,0000.0,0010.41,0006.11,0005.65
2021-11-01 03:54:00,,0829.5,5.00,0.00,25.6,24.7,00.0,34.6,27.4,18.3,0000.0,0011.12,0006.16,0005.69
2021-11-01 03:55:00,,0829.5,4.99,0.00,25.6,24.7,00.0,34.6,27.4,18.3,0000.0,0011.59,0006.19,0005.72
2021-11-01 03:56:00,,0829.5,5.00,0.00,25.6,24.7,00.0,34.6,27.4,18.3,0000.0,0011.77,0006.26,0005.76
2021-11-01 03:57:00,,0829.5,5.01,0.00,25.6,24.6,00.0,34.6,27.4,18.4,0000.0,0011.98,0006.34,0005.79
2021-11-01 03:58:00,,0829.6,4.99,0.00,25.5,24.6,00.0,34.6,27.4,18.4,0000.0,0012.54,0006.36,0005.81
2021-11-01 03:59:00,,0829.6,5.01,0.00,25.5,24.7,00.0,34.6,27.4,18.3,0000.0,0012.42,0006.32,0005.81
